VE2DEW-13 Weather Reports


time (UTC)temp
C
wind
direction
speed
KPH
gust
KPH
rain 1hr
cm
rain 24hr
cm
rain mn
cm
humidity
%
barometer
mb
20260504081525 6 101 0.0 1.6 0.00 0.00 0.00 79 1006.1
20260504044519 4 115 0.0 1.6 0.00 0.00 0.00 65 1006.8
20260504043019 3 161 0.0 0.0 0.00 0.00 0.00 65 1006.9
20260504041523 4 161 0.0 1.6 0.00 0.00 0.00 62 1006.9
20260504040006 4 113 0.0 1.6 0.00 0.00 0.00 61 1007.0
20260504034510 4 113 0.0 1.6 0.00 0.00 0.00 61 1007.0
20260504033012 4 113 0.0 1.6 0.00 0.00 0.00 63 1007.1
20260504031512 5 145 0.0 1.6 0.00 0.00 0.00 61 1007.1
20260504030004 5 202 0.0 0.0 0.00 0.00 0.00 56 1007.2
20260504024506 5 202 0.0 1.6 0.00 0.00 0.00 56 1007.2
20260504023010 6 214 1.6 4.8 0.00 0.00 0.00 53 1007.3
20260504021513 6 221 1.6 3.2 0.00 0.00 0.00 53 1007.6
20260504020012 6 202 3.2 4.8 0.00 0.00 0.00 52 1007.6
20260504014506 6 221 3.2 8.0 0.00 0.00 0.00 52 1007.7
20260504013008 6 233 3.2 4.8 0.00 0.00 0.00 55 1007.7
20260504011511 7 224 1.6 3.2 0.00 0.00 0.00 53 1007.7
20260504010014 7 223 1.6 3.2 0.00 0.00 0.00 51 1007.6
20260504004531 8 223 1.6 3.2 0.00 0.00 0.00 48 1007.4
20260504003005 8 189 3.2 4.8 0.00 0.00 0.00 45 1007.4
20260504001526 9 238 1.6 4.8 0.00 0.00 0.00 42 1007.3
20260504000016 10 195 4.8 11.3 0.00 0.00 0.00 40 1007.3
20260503234518 10 232 3.2 11.3 0.00 0.00 0.00 40 1007.3
20260503233014 11 248 1.6 4.8 0.00 0.00 0.00 39 1007.2
20260503231505 11 285 3.2 6.4 0.00 0.00 0.00 38 1007.2
20260503230008 11 272 4.8 11.3 0.00 0.00 0.00 38 1007.2
20260503224518 12 255 1.6 12.9 0.00 0.00 0.00 37 1007.2
20260503223016 12 295 4.8 16.1 0.00 0.00 0.00 35 1007.2
20260503221517 12 295 8.0 22.5 0.00 0.00 0.00 33 1007.2
20260503220030 12 316 9.7 22.5 0.00 0.00 0.00 37 1007.3
20260503214520 11 273 6.4 19.3 0.00 0.03 0.00 39 1007.3
20260503213028 11 168 3.2 14.5 0.00 0.03 0.00 40 1007.4
20260503211519 11 290 4.8 14.5 0.00 0.03 0.00 40 1007.3
20260503210021 11 298 9.7 20.9 0.00 0.03 0.00 39 1007.2
20260503204527 11 293 8.0 19.3 0.00 0.03 0.00 41 1007.3
20260503203013 11 146 3.2 17.7 0.00 0.03 0.00 43 1007.3
20260503201518 11 264 11.3 20.9 0.00 0.05 0.00 40 1007.4
20260503200024 11 326 9.7 19.3 0.00 0.08 0.00 43 1007.6
20260503194522 10 260 9.7 20.9 0.00 0.08 0.00 42 1007.9
20260503193020 11 245 8.0 20.9 0.00 0.08 0.00 42 1008.0
20260503191514 10 312 6.4 19.3 0.00 0.08 0.00 44 1008.2
20260503190026 10 301 6.4 16.1 0.00 0.08 0.00 48 1008.3
20260503184524 10 302 6.4 19.3 0.00 0.08 0.00 46 1008.4
20260503183007 9 317 9.7 22.5 0.00 0.08 0.00 47 1008.5
20260503181523 10 300 9.7 22.5 0.00 0.10 0.00 45 1008.6
20260503180024 9 307 6.4 14.5 0.00 0.15 0.00 50 1008.8
20260503174519 9 283 8.0 16.1 0.00 0.28 0.00 49 1008.9
20260503173020 8 285 6.4 22.5 0.00 0.38 0.00 52 1009.1
20260503171506 9 311 6.4 16.1 0.00 0.41 0.00 50 1009.1